Humidity-temperature Sensor

Selected Measurement Type: Air Temperature

 
Air Temperature [°C]     6 entries per hour
Showing data from 4/19/2015 (00:00:00 Z) to 4/18/2015 (00:01:00 Z)
Previous Next [ Day | 3-Days | 7-Days ]
First Last
Prev [ Day | 3-Days | 7-Days ] Next
First Last

Start Time:     :
End Time:     :     
Time (in GMT) :00 :50 :40 :30 :20 :10
Previous Next [ Day | 3-Days | 7-Days ]
First Last
Prev [ Day | 3-Days | 7-Days ] Next
First Last


123 => good data
MM => data is determined as missing
-- => data not received/configured
Back to Top Back to Top
4/19/2015 00:00 to 23:10 27.12 27.19 27.19 27.33 27.27 27.06
4/18/2015 23:00 to 22:10 26.99 26.65 26.23 26.36 26.64 26.60
4/18/2015 22:00 to 21:10 26.49 26.56 26.51 26.36 25.91 25.85
4/18/2015 21:00 to 20:10 25.84 25.72 26.17 25.90 25.87 25.88
4/18/2015 20:00 to 19:10 25.83 26.16 26.20 25.58 25.77 25.79
4/18/2015 19:00 to 18:10 25.77 25.63 25.42 25.76 25.83 25.97
4/18/2015 18:00 to 17:10 26.41 26.47 26.72 27.40 27.44 27.25
4/18/2015 17:00 to 16:10 27.10 26.94 26.99 26.99 27.07 27.54
4/18/2015 16:00 to 15:10 27.60 27.42 27.64 27.60 27.55 27.16
4/18/2015 15:00 to 14:10 27.47 27.65 27.40 27.64 27.34 27.41
4/18/2015 14:00 to 13:10 27.58 27.30 27.33 27.24 27.29 27.21
4/18/2015 13:00 to 12:10 27.26 27.24 27.36 27.43 27.28 27.18
4/18/2015 12:00 to 11:10 27.20 27.28 27.31 27.24 27.24 27.20
4/18/2015 11:00 to 10:10 27.26 27.27 27.27 27.02 27.01 27.40
4/18/2015 10:00 to 9:10 27.47 27.38 27.38 27.54 27.34 27.43
4/18/2015 09:00 to 8:10 27.53 27.61 27.46 27.61 27.55 27.52
4/18/2015 08:00 to 7:10 27.56 27.61 27.71 27.64 27.75 27.72
4/18/2015 07:00 to 6:10 27.65 27.85 27.68 27.84 27.83 27.80
4/18/2015 06:00 to 5:10 27.75 27.89 27.83 27.92 27.85 27.94
4/18/2015 05:00 to 4:10 27.86 27.87 27.83 27.86 27.76 27.82
4/18/2015 04:00 to 3:10 27.92 27.84 27.87 27.88 27.84 27.86
4/18/2015 03:00 to 2:10 27.70 27.72 27.85 27.91 27.82 27.82
4/18/2015 02:00 to 1:10 27.78 27.87 27.75 27.86 27.91 28.02
4/18/2015 01:00 to 0:10 27.98 28.19 28.50 28.55 28.81 28.84